Location: Barcelona
(41.3830°N, 2.1830°E)
Time: 20:55:01
(UTC+01:00)

ISS - Pass Details

Date: 02 March 2021
Orbit: 417 x 422 km, 51.6° (Epoch: 26 February)

Event Time Altitude Azimuth Distance (km) Brightness Sun altitude
Exits shadow 05:41:08 15° 350° (N) 1,220 -1.4 -20.1°
Maximum altitude 05:41:13 15° 352° (N) 1,219 -1.4 -20.1°
Drops below altitude 10° 05:43:18 10° 31° (NNE) 1,499 -0.5 -19.7°
Sets 05:46:03 0° 55° (NE) 2,364 1.2 -19.2°
